• In Hungary
  • List of Countries
  • For 7 days
  • Water Temperature
  • Satellite Maps
  • Weather Map
  • News
  • Weather Widgets
  • user-avatar
    Login

    Hourly Weather Shelomec

    Today, 18 June, Monday

    Time Temperature Precipitation Wind Pressure Humidity
    00:00 +15°C° 0 mm 1 mps 750 mmHg 80%
    01:00 +15°C° 0 mm 1 mps 750 mmHg 82%
    02:00 +14°C° 0 mm 1 mps 750 mmHg 85%
    03:00 +15°C° 0 mm 1 mps 749 mmHg 84%
    04:00 +16°C° 0 mm 1 mps 749 mmHg 82%
    05:00 +18°C° 0 mm 1 mps 749 mmHg 80%
    06:00 +20°C° 0 mm 1 mps 749 mmHg 74%
    07:00 +22°C° 0 mm 1 mps 749 mmHg 67%
    08:00 +24°C° 0 mm 2 mps 749 mmHg 58%
    09:00 +25°C° 0 mm 2 mps 749 mmHg 54%
    10:00 +26°C° 0 mm 2 mps 749 mmHg 49%
    11:00 +27°C° 0 mm 2 mps 749 mmHg 44%
    12:00 +27°C° 0 mm 2 mps 749 mmHg 44%
    13:00 +28°C° 0 mm 2 mps 748 mmHg 45%
    14:00 +28°C° 0 mm 2 mps 748 mmHg 45%
    15:00 +27°C° 0 mm 2 mps 748 mmHg 49%
    16:00 +27°C° 0 mm 2 mps 748 mmHg 52%
    17:00 +27°C° 0 mm 2 mps 747 mmHg 55%
    18:00 +25°C° 0.1 mm 2 mps 747 mmHg 64%
    19:00 +23°C° 0.1 mm 2 mps 747 mmHg 73%
    20:00 +21°C° 0.1 mm 1 mps 747 mmHg 81%
    21:00 +20°C° 0 mm 1 mps 747 mmHg 85%
    22:00 +19°C° 0 mm 1 mps 747 mmHg 88%
    23:00 +18°C° 0 mm 1 mps 747 mmHg 92%

    Tomorrow, 19 June, Tuesday

    Time Temperature Precipitation Wind Pressure Humidity
    00:00 +18°C° 0 mm 1 mps 747 mmHg 93%
    01:00 +16°C° 0 mm 1 mps 746 mmHg 95%
    02:00 +16°C° 0 mm 1 mps 746 mmHg 96%
    03:00 +16°C° 0 mm 1 mps 746 mmHg 95%
    04:00 +17°C° 0 mm 2 mps 746 mmHg 93%
    05:00 +17°C° 0 mm 2 mps 746 mmHg 92%
    06:00 +19°C° 0.1 mm 2 mps 746 mmHg 86%
    07:00 +21°C° 0.1 mm 2 mps 746 mmHg 80%
    08:00 +23°C° 0.1 mm 2 mps 746 mmHg 74%
    09:00 +24°C° 0.2 mm 2 mps 746 mmHg 67%
    10:00 +26°C° 0.2 mm 3 mps 745 mmHg 60%
    11:00 +27°C° 0.2 mm 3 mps 745 mmHg 53%
    12:00 +27°C° 0.3 mm 3 mps 745 mmHg 54%
    13:00 +27°C° 0.3 mm 4 mps 744 mmHg 56%
    14:00 +27°C° 0.3 mm 4 mps 744 mmHg 57%
    15:00 +26°C° 0.1 mm 4 mps 744 mmHg 57%
    16:00 +26°C° 0.1 mm 4 mps 743 mmHg 57%
    17:00 +25°C° 0.1 mm 4 mps 743 mmHg 57%
    18:00 +24°C° 0 mm 3 mps 743 mmHg 61%
    19:00 +21°C° 0 mm 3 mps 743 mmHg 65%
    20:00 +20°C° 0 mm 3 mps 743 mmHg 69%
    21:00 +19°C° 0 mm 3 mps 743 mmHg 70%
    22:00 +18°C° 0 mm 3 mps 743 mmHg 71%
    23:00 +17°C° 0 mm 3 mps 743 mmHg 73%

    Day after tomorrow, 20 June, Wednesday

    Time Temperature Precipitation Wind Pressure Humidity
    00:00 +17°C° 0.1 mm 4 mps 743 mmHg 77%
    01:00 +15°C° 0.1 mm 4 mps 743 mmHg 80%
    02:00 +14°C° 0.1 mm 4 mps 743 mmHg 84%
    03:00 +14°C° 0 mm 4 mps 744 mmHg 83%
    04:00 +13°C° 0 mm 4 mps 744 mmHg 82%
    05:00 +13°C° 0 mm 4 mps 744 mmHg 82%
    06:00 +14°C° 0 mm 4 mps 744 mmHg 72%
    07:00 +16°C° 0 mm 5 mps 745 mmHg 62%
    08:00 +17°C° 0 mm 5 mps 745 mmHg 53%
    09:00 +19°C° 0 mm 5 mps 745 mmHg 48%
    10:00 +20°C° 0 mm 5 mps 745 mmHg 43%
    11:00 +21°C° 0 mm 6 mps 745 mmHg 39%
    12:00 +22°C° 0 mm 6 mps 745 mmHg 39%
    13:00 +22°C° 0 mm 6 mps 744 mmHg 39%
    14:00 +23°C° 0 mm 6 mps 744 mmHg 39%
    15:00 +22°C° 0 mm 5 mps 744 mmHg 41%
    16:00 +22°C° 0 mm 5 mps 744 mmHg 44%
    17:00 +21°C° 0 mm 4 mps 744 mmHg 46%
    18:00 +20°C° 0 mm 4 mps 744 mmHg 53%
    19:00 +18°C° 0 mm 3 mps 745 mmHg 59%
    20:00 +17°C° 0 mm 2 mps 745 mmHg 65%
    21:00 +16°C° 0 mm 2 mps 745 mmHg 68%
    22:00 +15°C° 0 mm 2 mps 745 mmHg 70%
    23:00 +14°C° 0 mm 2 mps 745 mmHg 73%

    21 June, Thursday

    Time Temperature Precipitation Wind Pressure Humidity
    00:00 +12°C° 0 mm 3 mps 745 mmHg 74%
    01:00 +12°C° 0 mm 3 mps 745 mmHg 74%
    02:00 +11°C° 0 mm 3 mps 745 mmHg 75%
    03:00 +11°C° 0 mm 3 mps 746 mmHg 72%
    04:00 +12°C° 0 mm 3 mps 746 mmHg 70%
    05:00 +12°C° 0 mm 3 mps 746 mmHg 68%
    06:00 +14°C° 0 mm 4 mps 746 mmHg 62%
    07:00 +15°C° 0 mm 4 mps 746 mmHg 57%
    08:00 +18°C° 0 mm 4 mps 746 mmHg 51%
    09:00 +18°C° 0 mm 4 mps 745 mmHg 52%
    10:00 +19°C° 0 mm 4 mps 745 mmHg 52%
    11:00 +20°C° 0 mm 4 mps 745 mmHg 53%
    12:00 +19°C° 0 mm 4 mps 745 mmHg 60%
    13:00 +18°C° 0 mm 3 mps 745 mmHg 66%
    14:00 +17°C° 0 mm 3 mps 745 mmHg 73%
    15:00 +17°C° 0 mm 3 mps 745 mmHg 73%
    16:00 +18°C° 0 mm 3 mps 745 mmHg 72%
    17:00 +19°C° 0 mm 3 mps 745 mmHg 72%
    18:00 +18°C° 0 mm 2 mps 745 mmHg 77%
    19:00 +18°C° 0 mm 2 mps 744 mmHg 82%
    20:00 +18°C° 0 mm 1 mps 744 mmHg 87%
    21:00 +16°C° 0 mm 1 mps 744 mmHg 90%
    22:00 +16°C° 0 mm 2 mps 744 mmHg 92%
    23:00 +15°C° 0 mm 2 mps 744 mmHg 95%

    22 June, Friday

    Time Temperature Precipitation Wind Pressure Humidity
    00:00 +15°C° 0 mm 2 mps 744 mmHg 95%
    01:00 +15°C° 0 mm 2 mps 744 mmHg 96%
    02:00 +15°C° 0 mm 2 mps 744 mmHg 96%
    03:00 +16°C° 0 mm 3 mps 743 mmHg 94%
    04:00 +17°C° 0 mm 3 mps 743 mmHg 91%
    05:00 +18°C° 0 mm 3 mps 743 mmHg 89%
    06:00 +20°C° 0 mm 4 mps 743 mmHg 80%
    07:00 +21°C° 0 mm 5 mps 742 mmHg 71%
    08:00 +23°C° 0 mm 5 mps 742 mmHg 62%
    09:00 +24°C° 0 mm 6 mps 742 mmHg 58%
    10:00 +27°C° 0 mm 6 mps 741 mmHg 55%
    11:00 +28°C° 0 mm 7 mps 741 mmHg 51%
    12:00 +28°C° 0.3 mm 6 mps 741 mmHg 55%
    13:00 +27°C° 0.3 mm 6 mps 741 mmHg 60%
    14:00 +27°C° 0.3 mm 6 mps 740 mmHg 64%
    15:00 +27°C° 0.4 mm 5 mps 740 mmHg 68%
    16:00 +26°C° 0.4 mm 5 mps 740 mmHg 72%
    17:00 +26°C° 0.4 mm 4 mps 740 mmHg 76%
    18:00 +25°C° 0.6 mm 4 mps 740 mmHg 80%
    19:00 +24°C° 0.6 mm 3 mps 740 mmHg 83%
    20:00 +21°C° 0.6 mm 3 mps 740 mmHg 87%
    21:00 +21°C° 0.8 mm 3 mps 740 mmHg 89%
    22:00 +20°C° 0.8 mm 2 mps 740 mmHg 90%
    23:00 +20°C° 0.8 mm 2 mps 740 mmHg 92%

    23 June, Saturday

    Time Temperature Precipitation Wind Pressure Humidity
    00:00 +19°C° 0.3 mm 2 mps 740 mmHg 94%
    01:00 +18°C° 0.3 mm 2 mps 740 mmHg 95%
    02:00 +19°C° 0.3 mm 1 mps 740 mmHg 97%
    03:00 +18°C° 0.1 mm 2 mps 740 mmHg 97%
    04:00 +18°C° 0.1 mm 2 mps 740 mmHg 96%
    05:00 +18°C° 0.1 mm 2 mps 740 mmHg 96%
    06:00 +18°C° 0.2 mm 2 mps 741 mmHg 95%
    07:00 +18°C° 0.2 mm 3 mps 741 mmHg 94%
    08:00 +17°C° 0.2 mm 3 mps 741 mmHg 93%
    09:00 +16°C° 0.2 mm 3 mps 741 mmHg 94%
    10:00 +14°C° 0.2 mm 3 mps 742 mmHg 94%
    11:00 +13°C° 0.2 mm 3 mps 742 mmHg 94%
    12:00 +14°C° 0.2 mm 2 mps 742 mmHg 94%
    13:00 +14°C° 0.2 mm 2 mps 742 mmHg 95%
    14:00 +14°C° 0.2 mm 1 mps 743 mmHg 95%
    15:00 +14°C° 0 mm 1 mps 743 mmHg 95%
    16:00 +14°C° 0 mm 1 mps 743 mmHg 95%
    17:00 +14°C° 0 mm 1 mps 743 mmHg 95%
    18:00 +13°C° 0 mm 1 mps 743 mmHg 95%
    19:00 +13°C° 0 mm 1 mps 743 mmHg 95%
    20:00 +13°C° 0 mm 1 mps 744 mmHg 95%
    21:00 +13°C° 0 mm 1 mps 744 mmHg 96%
    22:00 +12°C° 0 mm 1 mps 744 mmHg 96%
    23:00 +12°C° 0 mm 1 mps 744 mmHg 97%
    Show more